Regional Weather Roundup
Issued by NWS

Home | Current Version | Previous Version | Graphics & Text | Print | Product List | Glossary Off
Versions: 1 2 3 4 5 6 7 8 9 10 11 12 13 14 15 16 17 18 19 20 21 22 23 24 25 26 27 28 29 30 31 32 33 34 35 36 37 38 39 40 41 42 43 44 45 46 47 48 49 50

000
ASUS43 KDTX 292201
RWRMI
MICHIGAN HOURLY REGIONAL WEATHER ROUNDUP
NATIONAL WEATHER SERVICE DETROIT/PONTIAC MI
600 PM EDT SUN MAR 29 2015

NOTE: "FAIR" INDICATES FEW OR NO CLOUDS BELOW 12,000 FEET WITH NO
SIGNIFICANT WEATHER AND/OR OBSTRUCTION TO VISIBILITY.

MIZ047>049-052>055-059>063-066>070-074>076-081>083-292300-
SOUTHEAST LOWER MICHIGAN

CITY           SKY/WX    TMP DP  RH WIND       PRES   REMARKS
ADRIAN         CLOUDY    40  24  53 SW18G31   29.90R WCI  31
ALMA           CLOUDY    33  32  94 S18G28    29.78F FOG     WCI  22
ANN ARBOR      LGT RAIN  39  24  55 SW22G30   29.88R WCI  29
BAD AXE        LGT SNOW  34  28  78 SW24G38   29.79R WCI  22
CARO           LGT SNOW  34  30  86 S14G24    29.79F WCI  25
DETROIT CITY   CLOUDY    43  20  39 SW17G30   29.89S
DETROIT        FLURRIES  42  22  44 S26G39    29.92R
FLINT          LGT RAIN  38  26  62 S22G31    29.84S WCI  27
GROSSE ILE     CLOUDY    39  25  56 SW21G26   29.90R WCI  29
HILLSDALE      MIX PCPN  38  25  59 S17G26    29.84F WCI  28
HOWELL         LGT SNOW  34  30  85 S17       29.83F WCI  24

CITY           SKY/WX    TMP DP  RH WIND       PRES   REMARKS
JACKSON        CLOUDY    36  28  73 SW20G29   29.85F WCI  25
LAMBERTVILLE   CLOUDY    43  21  42 SW12G24   29.92R
LANSING        LGT RAIN  34  29  82 S21G31    29.82F WCI  22
LAPEER         FLURRIES  37  25  61 SW21G28   29.84R WCI  26
MASON          CLOUDY    33  29  86 SW8       29.85F FOG     WCI  26
MONROE         CLOUDY    43  23  45 SW21G32   29.90R
MT. CLEMENS    CLOUDY    40  23  49 S29G35    29.85S WCI  29
PONTIAC        LGT SNOW  34  28  79 SW20G40   29.86R VSB 3/4 WCI  23
PORT HOPE        N/A     36  26  67 SW13G36   29.76F WCI  27
PORT HURON     CLOUDY    37  21  52 S21G29    29.87R WCI  27
TRI CITIES     LGT SNOW  34  31  88 SW16G28   29.78F FOG     WCI  24
TROY           LGT SNOW  40  25  55 SW20G37   29.90R WCI  30
SAGINAW HB     LGT SNOW  34  34 100 S18G24    29.78F WCI  23
$$
MIZ043>046-050>051-056>058-064>065-071>073-077>080-292300-
SOUTHWEST LOWER MICHIGAN

CITY           SKY/WX    TMP DP  RH WIND       PRES   REMARKS
BATTLE CREEK   CLOUDY    37  25  61 SW20G29   29.83F WCI  27
BENTON HARBOR  CLOUDY    38  27  64 S16G28    29.82F WCI  29
BIG RAPIDS     CLOUDY    33  31  91 SW16G31   29.69F FOG     WCI  23
COLDWATER      CLOUDY    37  23  57 SW14G25   29.86R WCI  29
FREMONT        CLOUDY    33  30  86 S24G33    29.73F WCI  21
HOLLAND        CLOUDY    37  28  70 S17G25    29.78F WCI  27
GRAND RAPIDS   CLOUDY    35  28  75 S20       29.79F WCI  24
IONIA          MIX PCPN  34  31  90 SW22      29.79F WCI  22
KALAMAZOO      CLOUDY    37  26  64 S17       29.83F WCI  27
LUDINGTON      CLOUDY    36  31  85 S26G44    29.65F WCI  23
MARSHALL       CLOUDY    35  26  68 SW12      29.85R WCI  27
MOUNT PLEASANT CLOUDY    33  31  92 S14G22    29.75F FOG     WCI  23
MUSKEGON       CLOUDY    36  29  75 S23G35    29.75F WCI  24
SOUTH HAVEN    CLOUDY    39  27  61 S15G25    29.81S WCI  31
$$
MIZ016>042-292300-
NORTHERN LOWER MICHIGAN

CITY           SKY/WX    TMP DP  RH WIND       PRES   REMARKS
ALPENA         LGT SNOW  34  28  79 S18G24    29.67S VSB 1   WCI  23
BEAVER ISLAND  SNOW      32  31  96 S12G30    29.54F VSB 1/2 WCI  23
BELLAIRE       LGT SNOW  33  31  90 S14G20    29.61F WCI  24
CADILLAC       LGT SNOW  32  30  93 SW17G30   29.62F WCI  21
CHARLEVOIX     LGT SNOW  33  32  95 S16G24    29.60F VSB 1   WCI  22
FRANKFORT      RAIN      36  31  81 S25G35    29.61F WCI  24
GAYLORD        LGT SNOW  31  30  96 SW23G33   29.58F FOG     WCI  18
GRAYLING       CLOUDY    32  29  88 S17G24    29.63F FOG     WCI  21
HARBOR SPRINGS LGT RAIN  32  31  94 SW15G23   29.58F WCI  22
HOUGHTON LAKE  CLOUDY    32  28  85 S18G35    29.66F FOG     WCI  20
MANISTEE       CLOUDY    34  28  80 S20G30    29.63F WCI  22
OSCODA         LGT SNOW  36  29  75 SW22G32   29.70S WCI  25
PELLSTON       MIX PCPN  33  30  88 S12G22    29.59F FOG     WCI  24
ROGERS CITY    LGT SNOW  32  31  96 S10       29.65F WCI  24
TRAVERSE CITY  LGT RAIN  34  30  85 SW12G28   29.60F FOG     WCI  25
$$
MIZ007>008-015-292300-
EASTERN UPPER MICHIGAN

CITY           SKY/WX    TMP DP  RH WIND       PRES   REMARKS
KINROSS        CLOUDY    34  34 100 S10G21    29.55F WCI  26
MACKINAC ISLAN LGT SNOW  32  32  99 S14G22    29.56F WCI  22
NEWBERRY       LGT SNOW  31  30  96 S22G30    29.50F VSB 1   WCI  18
S. S. MARIE    LGT SNOW  32  30  92 S10       29.54F VSB 1   WCI  24
$$
MIZ004>006-011>014-085-292300-
CENTRAL UPPER MICHIGAN

CITY           SKY/WX    TMP DP  RH WIND       PRES   REMARKS
MANISTIQUE     SNOW      32  32 100 SW13G23   29.50F VSB 1/2 WCI  23
ESCANABA       CLOUDY    34  30  86 SW8       29.49S VSB 1   WCI  27
MENOMINEE      CLOUDY    36  32  87 SW10      29.51S WCI  28
$$
MIZ001>003-009>011-084-292300-
WESTERN UPPER MICHIGAN

CITY           SKY/WX    TMP DP  RH WIND       PRES   REMARKS
IRON MOUNTAIN  LGT RAIN  36  32  85 W8        29.45S WCI  30
HOUGHTON       SNOW      33  31  92 NW24G31   29.43R VSB 1/2 WCI  20
COPPER HARBOR    N/A     35  32  88 N17G28    29.40R WCI  25
IRONWOOD       CLOUDY    36  34  93 NW17      29.56R WCI  25
$$

ABBREVIATIONS USED IN REMARKS
   TC - TEMPERATURE IN CELSIUS
  WCI - WIND CHILL INDEX
   HX - HEAT INDEX
  VSB - VISIBILITY



USA.gov is the U.S. government's official web portal to all federal, state and local government web resources and services.